Regional Weather Roundup
Issued by NWS

Home | Current Version | Previous Version | Text Only | Print | Product List | Glossary On
Versions: 1 2 3 4 5 6 7 8 9 10 11 12 13 14 15 16 17 18 19 20 21 22 23 24 25 26 27 28 29 30 31 32 33 34 35 36 37 38 39 40 41 42 43 44 45 46 47 48 49 50
000
ASUS42 KFFC 251810
RWRGA
WEATHER ROUNDUP FOR GEORGIA
NATIONAL WEATHER SERVICE PEACHTREE CITY GA
200 PM EDT MON SEP 25 2017

NOTE: "FAIR" INDICATES FEW OR NO CLOUDS BELOW 12,000 FEET WITH NO
SIGNIFICANT WEATHER AND/OR OBSTRUCTIONS TO VISIBILITY.

* = USE WITH CAUTION. THE STATIONS MARKED WITH AN ASTERISK MAY NOT
REPORT WEATHER SUCH AS PRECIPITATION, FOG, OR THUNDER AND ARE NOT
QUALITY CONTROLLED BY NWS.

THE REMARK "TC" DENOTES TEMPERATURE READING IN DEGREES CELSIUS.

GAZ001>058-251900-
NORTH GEORGIA

CITY           SKY/WX    TMP DP  RH WIND       PRES   REMARKS
ATLANTA        MOSUNNY   84  60  44 VRB6      30.02F
6HR MIN TEMP:  72; 6HR MAX TEMP:  85;

ATHENS         SUNNY     85  63  47 VRB7      30.01F
6HR MIN TEMP:  68; 6HR MAX TEMP:  86;

CHAMBLEE       SUNNY     84  59  42 MISG      30.02F
6HR MIN TEMP:  66; 6HR MAX TEMP:  85;

PEACHTREE CITY SUNNY     86  60  41 NE9       30.01F
6HR MIN TEMP:  63; 6HR MAX TEMP:  86;

ROME           MOSUNNY   85  63  47 NW3       30.01F
6HR MIN TEMP:  64; 6HR MAX TEMP:  86;

WEST ATLANTA   MOSUNNY   85  61  44 VRB6      30.01F
6HR MIN TEMP:  64; 6HR MAX TEMP:  86;

GAINESVILLE    SUNNY     82  61  48 NE8       30.06F
6HR MIN TEMP:  69; 6HR MAX TEMP:  83;

CARTERSVILLE   MOSUNNY   85  62  46 VRB6      30.03F
6HR MIN TEMP:  61; 6HR MAX TEMP:  85;



CITY           SKY/WX    TMP DP  RH WIND       PRES   REMARKS
DALTON*        SUNNY     82  63  51 CALM      30.04F
LAWRENCEVILLE* MOSUNNY   84  61  45 NE9       30.04F
MARIETTA       MOSUNNY   84  60  44 NE8       30.03F
KENNESAW*      MOSUNNY   84  60  44 E9        30.04F
CANTON*        SUNNY     84  61  45 CALM      30.05F
$$

GAZ059>098-102>109-251900-
CENTRAL GEORGIA

CITY           SKY/WX    TMP DP  RH WIND       PRES   REMARKS
AUGUSTA-BUSH   SUNNY     86  57  37 E8        29.95F
6HR MIN TEMP:  69; 6HR MAX TEMP:  86;

AUGUSTA-DANIEL SUNNY     88  58  36 MISG      29.96F
6HR MIN TEMP:  70; 6HR MAX TEMP:  88;

COLUMBUS       PTSUNNY   88  63  43 E10       29.96F
6HR MIN TEMP:  69; 6HR MAX TEMP:  89;

MACON          SUNNY     88  57  34 E12       29.97F
6HR MIN TEMP:  65; 6HR MAX TEMP:  88;

ROBINS AFB     SUNNY     87  56  34 E10       29.96F


CITY           SKY/WX    TMP DP  RH WIND       PRES   REMARKS
LAGRANGE*      MOSUNNY   87  63  44 NE6       30.00F
SYLVANIA*      SUNNY     85  70  59 NE6       29.94F
MILLEDGEVILLE* SUNNY     86  63  45 SE5       29.99F
$$

GAZ099>101-110>166-251900-
SOUTH GEORGIA

CITY           SKY/WX    TMP DP  RH WIND       PRES   REMARKS
SAVANNAH       MOSUNNY   87  66  49 E6        29.91F
6HR MIN TEMP:  70; 6HR MAX TEMP:  87;

VALDOSTA       MOSUNNY   87  69  54 MISG      29.91F HX  91
6HR MIN TEMP:  69; 6HR MAX TEMP:  87;

ALMA           SUNNY     88  63  43 N7        29.92F
6HR MIN TEMP:  70; 6HR MAX TEMP:  89;

ST SIMONS      SUNNY     85  71  63 E6        29.89F HX  90
6HR MIN TEMP:  73; 6HR MAX TEMP:  87;

FT STEWART     SUNNY     86  66  51 N7        29.89F
ALBANY         PTSUNNY   88  67  49 N7        29.95F HX  91
HUNTER AFB     MOSUNNY   86  68  55 N7        29.88F
MOODY AFB      MOSUNNY   87  67  52 CALM      29.91F
BRUNSWICK      SUNNY     86  59  39 N6        29.91F


CITY           SKY/WX    TMP DP  RH WIND       PRES   REMARKS
BAINBRIDGE*    MOSUNNY   88  72  58 CALM      29.93F HX  94
MOULTRIE*      MOSUNNY   88  66  48 NE5       29.94F HX  90
VIDALIA*       SUNNY     88  63  42 NW7       29.94F
WAYCROSS*      SUNNY     88  60  38 NE7       29.91F
DOUGLAS*       SUNNY     86  63  45 NE6       29.94F
$$




USA.gov is the U.S. government's official web portal to all federal, state and local government web resources and services.